Location: Unspecified
(0.0000°N, 0.0000°E)
Time: 08:36:40
(UTC+01:00)

PROBA 2 - Visible Passes

Search period start: 18 December 2014 00:00
Search period end: 28 December 2014 00:00
Orbit: 708 x 725 km, 98.3° (Epoch: 17 December)

Date Brightness Start Highest point End Pass type
(mag) Time Alt. Az. Time Alt. Az. Time Alt. Az.
18 Dec ? 19:46:40 10° N 19:51:07 38° WNW 19:55:34 10° SW visible
20 Dec ? 19:42:54 10° N 19:47:26 43° WNW 19:51:59 10° SSW visible
21 Dec ? 06:29:45 10° ESE 06:33:12 20° ENE 06:36:40 10° NNE visible
21 Dec ? 20:33:52 10° WNW 20:34:27 10° WNW 20:35:02 10° W visible
22 Dec ? 19:39:09 10° N 19:43:46 48° WNW 19:48:23 10° SSW visible
23 Dec ? 06:26:20 10° ESE 06:29:32 18° ENE 06:32:44 10° NE visible
23 Dec ? 20:29:09 10° WNW 20:30:47 12° WNW 20:32:25 10° W visible
24 Dec ? 19:35:25 10° N 19:40:05 54° WNW 19:44:45 10° SSW visible
25 Dec ? 06:22:57 10° ESE 06:25:51 16° ENE 06:28:45 10° NE visible
25 Dec ? 20:24:54 10° NW 20:27:06 13° WNW 20:29:18 10° WSW visible
26 Dec ? 19:31:41 10° N 19:36:24 61° WNW 19:41:07 10° SSW visible
27 Dec ? 06:19:39 10° ESE 06:22:11 14° ENE 06:24:42 10° NE visible
27 Dec ? 20:20:47 10° NW 20:23:25 15° WNW 20:26:03 10° WSW visible
